| time (UTC) | temp C | wind direction | speed KPH | gust KPH | rain 1hr cm | rain 24hr cm | rain mn cm | humidity % | barometer mb |
| 20260505112027 | 27 | 225 | 9.7 | 17.7 | 0.00 | 0.00 | 0.00 | 24 | 1009.5 |
| 20260505111526 | 27 | 208 | 9.7 | 27.4 | 0.00 | 0.00 | 0.00 | 25 | 1009.5 |
| 20260505111024 | 27 | 217 | 8.0 | 27.4 | 0.00 | 0.00 | 0.00 | 24 | 1009.5 |
| 20260505110521 | 27 | 231 | 9.7 | 24.1 | 0.00 | 0.00 | 0.00 | 24 | 1009.6 |
| 20260505102100 | 26 | 229 | 8.0 | 17.7 | 0.00 | 0.00 | 0.00 | 28 | 1009.9 |
| 20260505102024 | 26 | 229 | 8.0 | 17.7 | 0.00 | 0.00 | 0.00 | 28 | 1009.9 |
| 20260505101522 | 26 | 240 | 6.4 | 14.5 | 0.00 | 0.00 | 0.00 | 28 | 1010.1 |
| 20260505101021 | 26 | 205 | 9.7 | 20.9 | 0.00 | 0.00 | 0.00 | 27 | 1010.1 |
| 20260505100518 | 26 | 220 | 9.7 | 22.5 | 0.00 | 0.00 | 0.00 | 27 | 1010.0 |
| 20260505100148 | 26 | 188 | 9.7 | 24.1 | 0.00 | 0.00 | 0.00 | 28 | 1010.2 |
| 20260505100017 | 26 | 188 | 9.7 | 24.1 | 0.00 | 0.00 | 0.00 | 28 | 1010.2 |
| 20260505095535 | 26 | 185 | 8.0 | 20.9 | 0.00 | 0.00 | 0.00 | 28 | 1010.3 |
| 20260505095033 | 26 | 193 | 12.9 | 27.4 | 0.00 | 0.00 | 0.00 | 27 | 1010.3 |
| 20260505094531 | 26 | 200 | 9.7 | 22.5 | 0.00 | 0.00 | 0.00 | 28 | 1010.4 |
| 20260505094029 | 26 | 180 | 11.3 | 24.1 | 0.00 | 0.00 | 0.00 | 29 | 1010.3 |
| 20260505093528 | 26 | 177 | 12.9 | 27.4 | 0.00 | 0.00 | 0.00 | 28 | 1010.4 |
| 20260505093026 | 26 | 183 | 11.3 | 24.1 | 0.00 | 0.00 | 0.00 | 29 | 1010.4 |
| 20260505092524 | 26 | 227 | 9.7 | 20.9 | 0.00 | 0.00 | 0.00 | 30 | 1010.4 |
| 20260505092022 | 25 | 244 | 8.0 | 22.5 | 0.00 | 0.00 | 0.00 | 32 | 1010.4 |
| 20260505091520 | 25 | 186 | 9.7 | 24.1 | 0.00 | 0.00 | 0.00 | 32 | 1010.5 |
| 20260505091019 | 25 | 204 | 8.0 | 22.5 | 0.00 | 0.00 | 0.00 | 31 | 1010.5 |
| 20260505090517 | 25 | 191 | 8.0 | 14.5 | 0.00 | 0.00 | 0.00 | 32 | 1010.6 |
| 20260505090035 | 25 | 212 | 9.7 | 24.1 | 0.00 | 0.00 | 0.00 | 32 | 1010.5 |
| 20260505085533 | 25 | 228 | 8.0 | 22.5 | 0.00 | 0.00 | 0.00 | 33 | 1010.6 |
| 20260505085031 | 25 | 221 | 6.4 | 16.1 | 0.00 | 0.00 | 0.00 | 33 | 1010.7 |
| 20260505084530 | 24 | 251 | 8.0 | 14.5 | 0.00 | 0.00 | 0.00 | 32 | 1010.7 |
| 20260505084027 | 24 | 260 | 6.4 | 14.5 | 0.00 | 0.00 | 0.00 | 32 | 1010.8 |
| 20260505083526 | 24 | 234 | 8.0 | 16.1 | 0.00 | 0.00 | 0.00 | 32 | 1010.9 |
| 20260505083024 | 23 | 185 | 4.8 | 12.9 | 0.00 | 0.00 | 0.00 | 33 | 1010.9 |
| 20260505082522 | 23 | 228 | 8.0 | 17.7 | 0.00 | 0.00 | 0.00 | 32 | 1011.0 |
| 20260505082020 | 23 | 198 | 8.0 | 17.7 | 0.00 | 0.00 | 0.00 | 32 | 1010.9 |
| 20260505081519 | 23 | 222 | 8.0 | 17.7 | 0.00 | 0.00 | 0.00 | 33 | 1010.9 |
| 20260505081016 | 23 | 237 | 8.0 | 24.1 | 0.00 | 0.00 | 0.00 | 33 | 1011.0 |
| 20260505080535 | 23 | 269 | 4.8 | 16.1 | 0.00 | 0.00 | 0.00 | 33 | 1011.0 |
| 20260505080034 | 22 | 278 | 6.4 | 20.9 | 0.00 | 0.00 | 0.00 | 34 | 1011.0 |
| 20260505075531 | 22 | 251 | 8.0 | 14.5 | 0.00 | 0.00 | 0.00 | 34 | 1011.0 |
| 20260505075030 | 22 | 232 | 8.0 | 17.7 | 0.00 | 0.00 | 0.00 | 35 | 1011.1 |
| 20260505074528 | 22 | 256 | 4.8 | 16.1 | 0.00 | 0.00 | 0.00 | 34 | 1011.1 |
| 20260505074026 | 22 | 249 | 9.7 | 20.9 | 0.00 | 0.00 | 0.00 | 34 | 1011.1 |
| 20260505073524 | 21 | 249 | 8.0 | 16.1 | 0.00 | 0.00 | 0.00 | 35 | 1011.2 |
| 20260505073022 | 21 | 265 | 9.7 | 25.7 | 0.00 | 0.00 | 0.00 | 35 | 1011.2 |
| 20260505072520 | 21 | 243 | 8.0 | 14.5 | 0.00 | 0.00 | 0.00 | 38 | 1011.2 |
| 20260505072018 | 21 | 239 | 3.2 | 12.9 | 0.00 | 0.00 | 0.00 | 39 | 1011.2 |
| 20260505071517 | 20 | 243 | 6.4 | 14.5 | 0.00 | 0.00 | 0.00 | 40 | 1011.2 |
| 20260505071035 | 20 | 203 | 6.4 | 14.5 | 0.00 | 0.00 | 0.00 | 42 | 1011.4 |
| 20260505070533 | 20 | 206 | 4.8 | 14.5 | 0.00 | 0.00 | 0.00 | 42 | 1011.3 |
| 20260505070031 | 20 | 250 | 3.2 | 14.5 | 0.00 | 0.00 | 0.00 | 43 | 1011.4 |
| 20260505065530 | 19 | 227 | 6.4 | 16.1 | 0.00 | 0.00 | 0.00 | 43 | 1011.3 |
| 20260505065028 | 19 | 214 | 4.8 | 14.5 | 0.00 | 0.00 | 0.00 | 44 | 1011.4 |
| 20260505064526 | 18 | 216 | 3.2 | 9.7 | 0.00 | 0.00 | 0.00 | 46 | 1011.4 |
| 20260505064024 | 18 | 228 | 3.2 | 9.7 | 0.00 | 0.00 | 0.00 | 46 | 1011.5 |
| 20260505063522 | 18 | 226 | 3.2 | 9.7 | 0.00 | 0.00 | 0.00 | 46 | 1011.5 |
| 20260505063021 | 18 | 240 | 4.8 | 11.3 | 0.00 | 0.00 | 0.00 | 46 | 1011.5 |
| 20260505062519 | 17 | 226 | 6.4 | 16.1 | 0.00 | 0.00 | 0.00 | 46 | 1011.5 |
| 20260505062049 | 17 | 264 | 4.8 | 12.9 | 0.00 | 0.00 | 0.00 | 47 | 1011.6 |
| 20260505062016 | 17 | 264 | 4.8 | 12.9 | 0.00 | 0.00 | 0.00 | 47 | 1011.6 |
| 20260505061535 | 17 | 235 | 4.8 | 9.7 | 0.00 | 0.00 | 0.00 | 48 | 1011.6 |
| 20260505061034 | 17 | 246 | 6.4 | 16.1 | 0.00 | 0.00 | 0.00 | 48 | 1011.6 |
| 20260505060532 | 16 | 220 | 4.8 | 12.9 | 0.00 | 0.00 | 0.00 | 50 | 1011.5 |
| 20260505060030 | 16 | 192 | 3.2 | 6.4 | 0.00 | 0.00 | 0.00 | 52 | 1011.5 |
| 20260505055528 | 16 | 188 | 1.6 | 6.4 | 0.00 | 0.00 | 0.00 | 52 | 1011.6 |
| 20260505055026 | 15 | 184 | 3.2 | 6.4 | 0.00 | 0.00 | 0.00 | 53 | 1011.5 |
| 20260505054524 | 15 | 213 | 1.6 | 4.8 | 0.00 | 0.00 | 0.00 | 54 | 1011.5 |
| 20260505054023 | 15 | 210 | 1.6 | 4.8 | 0.00 | 0.00 | 0.00 | 54 | 1011.6 |
| 20260505053522 | 15 | 218 | 3.2 | 9.7 | 0.00 | 0.00 | 0.00 | 55 | 1011.6 |
| 20260505053019 | 14 | 203 | 1.6 | 6.4 | 0.00 | 0.00 | 0.00 | 56 | 1011.6 |
| 20260505052518 | 14 | 203 | 1.6 | 9.7 | 0.00 | 0.00 | 0.00 | 57 | 1011.7 |
| 20260505052035 | 13 | 211 | 1.6 | 4.8 | 0.00 | 0.00 | 0.00 | 59 | 1011.7 |
| 20260505051533 | 13 | 193 | 3.2 | 9.7 | 0.00 | 0.00 | 0.00 | 60 | 1011.7 |
| 20260505051032 | 13 | 184 | 1.6 | 4.8 | 0.00 | 0.00 | 0.00 | 61 | 1011.7 |
| 20260505050530 | 12 | 189 | 0.0 | 3.2 | 0.00 | 0.00 | 0.00 | 62 | 1011.6 |
| 20260505041531 | 11 | 0.0 | 0.0 | 0.00 | 0.00 | 0.00 | 64 | 1011.6 | |
| 20260505041031 | 11 | 0.0 | 0.0 | 0.00 | 0.00 | 0.00 | 64 | 1011.6 | |
| 20260505040528 | 11 | 0.0 | 0.0 | 0.00 | 0.00 | 0.00 | 64 | 1011.7 | |
| 20260505040026 | 11 | 0.0 | 0.0 | 0.00 | 0.00 | 0.00 | 64 | 1011.6 | |
| 20260505035524 | 11 | 0.0 | 0.0 | 0.00 | 0.00 | 0.00 | 64 | 1011.6 | |
| 20260505035022 | 11 | 0.0 | 0.0 | 0.00 | 0.00 | 0.00 | 64 | 1011.6 | |
| 20260505034520 | 11 | 0.0 | 0.0 | 0.00 | 0.00 | 0.00 | 64 | 1011.7 | |
| 20260505034018 | 11 | 0.0 | 0.0 | 0.00 | 0.00 | 0.00 | 64 | 1011.6 | |
| 20260505033517 | 11 | 0.0 | 0.0 | 0.00 | 0.00 | 0.00 | 64 | 1011.6 | |
| 20260505033035 | 11 | 0.0 | 0.0 | 0.00 | 0.00 | 0.00 | 63 | 1011.7 | |
| 20260505032533 | 11 | 0.0 | 0.0 | 0.00 | 0.00 | 0.00 | 63 | 1011.6 | |
| 20260505032049 | 11 | 0.0 | 0.0 | 0.00 | 0.00 | 0.00 | 63 | 1011.6 | |
| 20260505032031 | 11 | 0.0 | 0.0 | 0.00 | 0.00 | 0.00 | 63 | 1011.6 | |
| 20260505031529 | 11 | 0.0 | 0.0 | 0.00 | 0.00 | 0.00 | 63 | 1011.7 | |
| 20260505031028 | 11 | 0.0 | 0.0 | 0.00 | 0.00 | 0.00 | 63 | 1011.7 | |
| 20260505030526 | 11 | 0.0 | 0.0 | 0.00 | 0.00 | 0.00 | 63 | 1011.7 | |
| 20260505030024 | 11 | 0.0 | 0.0 | 0.00 | 0.00 | 0.00 | 62 | 1011.7 | |
| 20260505025522 | 11 | 0.0 | 0.0 | 0.00 | 0.00 | 0.00 | 62 | 1011.7 | |
| 20260505025020 | 12 | 0.0 | 0.0 | 0.00 | 0.00 | 0.00 | 61 | 1011.8 | |
| 20260505024518 | 12 | 0.0 | 0.0 | 0.00 | 0.00 | 0.00 | 61 | 1011.9 | |
| 20260505024016 | 12 | 0.0 | 0.0 | 0.00 | 0.00 | 0.00 | 61 | 1011.9 | |
| 20260505023535 | 12 | 0.0 | 0.0 | 0.00 | 0.00 | 0.00 | 61 | 1011.9 | |
| 20260505023033 | 12 | 0.0 | 0.0 | 0.00 | 0.00 | 0.00 | 61 | 1011.9 | |
| 20260505022531 | 12 | 0.0 | 0.0 | 0.00 | 0.00 | 0.00 | 61 | 1012.0 | |
| 20260505022029 | 12 | 0.0 | 0.0 | 0.00 | 0.00 | 0.00 | 61 | 1012.0 | |
| 20260505021528 | 12 | 0.0 | 0.0 | 0.00 | 0.00 | 0.00 | 60 | 1012.0 | |
| 20260505021026 | 12 | 0.0 | 0.0 | 0.00 | 0.00 | 0.00 | 60 | 1011.9 | |
| 20260505020525 | 12 | 0.0 | 0.0 | 0.00 | 0.00 | 0.00 | 60 | 1012.0 | |
| 20260505020022 | 12 | 0.0 | 0.0 | 0.00 | 0.00 | 0.00 | 60 | 1012.0 | |
| 20260505015520 | 12 | 0.0 | 0.0 | 0.00 | 0.00 | 0.00 | 60 | 1011.9 | |
| 20260505015019 | 12 | 0.0 | 0.0 | 0.00 | 0.00 | 0.00 | 60 | 1012.1 | |
| 20260505014517 | 12 | 0.0 | 0.0 | 0.00 | 0.00 | 0.00 | 59 | 1012.0 | |
| 20260505014035 | 12 | 0.0 | 0.0 | 0.00 | 0.00 | 0.00 | 59 | 1012.1 | |
| 20260505013534 | 13 | 0.0 | 0.0 | 0.00 | 0.00 | 0.00 | 59 | 1012.1 | |
| 20260505013032 | 13 | 0.0 | 0.0 | 0.00 | 0.00 | 0.00 | 58 | 1012.1 | |
| 20260505012530 | 13 | 0.0 | 0.0 | 0.00 | 0.00 | 0.00 | 58 | 1012.1 | |
| 20260505012028 | 13 | 0.0 | 0.0 | 0.00 | 0.00 | 0.00 | 58 | 1012.2 | |
| 20260505011526 | 13 | 0.0 | 0.0 | 0.00 | 0.00 | 0.00 | 58 | 1012.2 | |
| 20260505011025 | 13 | 0.0 | 0.0 | 0.00 | 0.00 | 0.00 | 57 | 1012.2 | |
| 20260505010523 | 13 | 0.0 | 0.0 | 0.00 | 0.00 | 0.00 | 57 | 1012.3 | |
| 20260505010021 | 13 | 0.0 | 0.0 | 0.00 | 0.00 | 0.00 | 57 | 1012.3 | |
| 20260505005520 | 13 | 0.0 | 0.0 | 0.00 | 0.00 | 0.00 | 57 | 1012.3 | |
| 20260505005018 | 13 | 0.0 | 0.0 | 0.00 | 0.00 | 0.00 | 57 | 1012.3 | |
| 20260505004516 | 13 | 0.0 | 0.0 | 0.00 | 0.00 | 0.00 | 57 | 1012.2 | |
| 20260505004034 | 13 | 0.0 | 0.0 | 0.00 | 0.00 | 0.00 | 57 | 1012.3 | |
| 20260505003533 | 13 | 0.0 | 0.0 | 0.00 | 0.00 | 0.00 | 58 | 1012.4 | |
| 20260505003031 | 13 | 0.0 | 0.0 | 0.00 | 0.00 | 0.00 | 57 | 1012.2 | |
| 20260505002529 | 13 | 0.0 | 0.0 | 0.00 | 0.00 | 0.00 | 57 | 1012.1 | |
| 20260505002027 | 13 | 0.0 | 0.0 | 0.00 | 0.00 | 0.00 | 56 | 1012.1 | |
| 20260505001525 | 13 | 0.0 | 0.0 | 0.00 | 0.00 | 0.00 | 56 | 1012.1 | |
| 20260505001023 | 14 | 0.0 | 0.0 | 0.00 | 0.00 | 0.00 | 56 | 1012.2 | |
| 20260505000522 | 14 | 0.0 | 0.0 | 0.00 | 0.00 | 0.00 | 56 | 1012.2 | |
| 20260505000020 | 14 | 0.0 | 0.0 | 0.00 | 0.00 | 0.00 | 56 | 1012.2 | |
| 20260504235518 | 14 | 0.0 | 0.0 | 0.00 | 0.00 | 0.00 | 56 | 1012.2 | |
| 20260504235048 | 14 | 0.0 | 0.0 | 0.00 | 0.00 | 0.00 | 56 | 1012.3 | |
| 20260504235017 | 14 | 0.0 | 0.0 | 0.00 | 0.00 | 0.00 | 56 | 1012.3 | |
| 20260504234534 | 14 | 0.0 | 0.0 | 0.00 | 0.00 | 0.00 | 56 | 1012.3 | |
| 20260504234032 | 14 | 0.0 | 0.0 | 0.00 | 0.00 | 0.00 | 55 | 1012.4 | |
| 20260504233531 | 14 | 0.0 | 0.0 | 0.00 | 0.00 | 0.00 | 55 | 1012.3 | |
| 20260504233029 | 14 | 0.0 | 0.0 | 0.00 | 0.00 | 0.00 | 55 | 1012.4 | |
| 20260504232528 | 14 | 0.0 | 0.0 | 0.00 | 0.00 | 0.00 | 55 | 1012.4 | |
| 20260504232025 | 14 | 0.0 | 0.0 | 0.00 | 0.00 | 0.00 | 55 | 1012.4 | |
| 20260504231524 | 14 | 0.0 | 0.0 | 0.00 | 0.00 | 0.00 | 55 | 1012.5 | |
| 20260504231022 | 15 | 0.0 | 0.0 | 0.00 | 0.00 | 0.00 | 55 | 1012.4 | |
| 20260504230520 | 15 | 0.0 | 0.0 | 0.00 | 0.00 | 0.00 | 54 | 1012.5 | |
| 20260504230018 | 15 | 0.0 | 0.0 | 0.00 | 0.00 | 0.00 | 53 | 1012.6 | |
| 20260504225516 | 15 | 0.0 | 0.0 | 0.00 | 0.00 | 0.00 | 53 | 1012.6 | |
| 20260504225035 | 15 | 0.0 | 0.0 | 0.00 | 0.00 | 0.00 | 54 | 1012.6 | |
| 20260504224533 | 15 | 0.0 | 0.0 | 0.00 | 0.00 | 0.00 | 55 | 1012.6 | |
| 20260504224031 | 15 | 0.0 | 0.0 | 0.00 | 0.00 | 0.00 | 53 | 1012.7 | |
| 20260504223529 | 15 | 0.0 | 0.0 | 0.00 | 0.00 | 0.00 | 52 | 1012.7 | |
| 20260504223027 | 15 | 0.0 | 0.0 | 0.00 | 0.00 | 0.00 | 52 | 1012.8 | |
| 20260504222525 | 15 | 0.0 | 0.0 | 0.00 | 0.00 | 0.00 | 52 | 1012.8 | |
| 20260504222024 | 15 | 0.0 | 0.0 | 0.00 | 0.00 | 0.00 | 52 | 1012.7 | |
| 20260504221522 | 15 | 0.0 | 0.0 | 0.00 | 0.00 | 0.00 | 52 | 1012.7 | |
| 20260504221021 | 15 | 257 | 0.0 | 1.6 | 0.00 | 0.00 | 0.00 | 52 | 1012.6 |
| 20260504220518 | 15 | 0.0 | 0.0 | 0.00 | 0.00 | 0.00 | 52 | 1012.7 | |
| 20260504220017 | 15 | 0.0 | 0.0 | 0.00 | 0.00 | 0.00 | 52 | 1012.7 | |
| 20260504215535 | 15 | 0.0 | 0.0 | 0.00 | 0.00 | 0.00 | 52 | 1012.7 | |
| 20260504215033 | 16 | 0.0 | 0.0 | 0.00 | 0.00 | 0.00 | 52 | 1012.7 | |
| 20260504214531 | 16 | 244 | 0.0 | 1.6 | 0.00 | 0.00 | 0.00 | 51 | 1012.6 |
| 20260504214030 | 16 | 244 | 0.0 | 1.6 | 0.00 | 0.00 | 0.00 | 51 | 1012.6 |
| 20260504213527 | 16 | 0.0 | 0.0 | 0.00 | 0.00 | 0.00 | 51 | 1012.6 | |
| 20260504213026 | 16 | 0.0 | 0.0 | 0.00 | 0.00 | 0.00 | 50 | 1012.7 | |
| 20260504212524 | 16 | 0.0 | 0.0 | 0.00 | 0.00 | 0.00 | 50 | 1012.7 | |
| 20260504212022 | 16 | 0.0 | 0.0 | 0.00 | 0.00 | 0.00 | 50 | 1012.6 | |
| 20260504211520 | 16 | 0.0 | 0.0 | 0.00 | 0.00 | 0.00 | 49 | 1012.7 | |
| 20260504211052 | 16 | 0.0 | 0.0 | 0.00 | 0.00 | 0.00 | 49 | 1012.7 | |
| 20260504211019 | 16 | 0.0 | 0.0 | 0.00 | 0.00 | 0.00 | 49 | 1012.7 | |
| 20260504210517 | 16 | 0.0 | 0.0 | 0.00 | 0.00 | 0.00 | 48 | 1012.6 | |
| 20260504210035 | 16 | 0.0 | 0.0 | 0.00 | 0.00 | 0.00 | 48 | 1012.6 | |
| 20260504205532 | 16 | 0.0 | 0.0 | 0.00 | 0.00 | 0.00 | 47 | 1012.6 | |
| 20260504205030 | 17 | 0.0 | 0.0 | 0.00 | 0.00 | 0.00 | 48 | 1012.7 | |
| 20260504204528 | 17 | 0.0 | 0.0 | 0.00 | 0.00 | 0.00 | 48 | 1012.7 | |
| 20260504204026 | 17 | 0.0 | 0.0 | 0.00 | 0.00 | 0.00 | 48 | 1012.7 | |
| 20260504203523 | 17 | 0.0 | 0.0 | 0.00 | 0.00 | 0.00 | 47 | 1012.7 | |
| 20260504203022 | 17 | 0.0 | 0.0 | 0.00 | 0.00 | 0.00 | 47 | 1012.7 | |
| 20260504202520 | 17 | 0.0 | 0.0 | 0.00 | 0.00 | 0.00 | 46 | 1012.7 | |
| 20260504202018 | 17 | 0.0 | 0.0 | 0.00 | 0.00 | 0.00 | 46 | 1012.6 | |
| 20260504201516 | 17 | 0.0 | 0.0 | 0.00 | 0.00 | 0.00 | 46 | 1012.5 | |
| 20260504201034 | 18 | 0.0 | 0.0 | 0.00 | 0.00 | 0.00 | 45 | 1012.6 | |
| 20260504200532 | 18 | 0.0 | 0.0 | 0.00 | 0.00 | 0.00 | 45 | 1012.6 | |
| 20260504200032 | 18 | 0.0 | 0.0 | 0.00 | 0.00 | 0.00 | 45 | 1012.5 | |
| 20260504195529 | 18 | 0.0 | 0.0 | 0.00 | 0.00 | 0.00 | 45 | 1012.5 | |
| 20260504195027 | 18 | 0.0 | 0.0 | 0.00 | 0.00 | 0.00 | 44 | 1012.6 | |
| 20260504194525 | 18 | 181 | 0.0 | 1.6 | 0.00 | 0.00 | 0.00 | 44 | 1012.6 |
| 20260504194023 | 18 | 0.0 | 0.0 | 0.00 | 0.00 | 0.00 | 44 | 1012.7 | |
| 20260504193520 | 19 | 233 | 0.0 | 4.8 | 0.00 | 0.00 | 0.00 | 44 | 1012.5 |
| 20260504193049 | 19 | 0.0 | 0.0 | 0.00 | 0.00 | 0.00 | 43 | 1012.6 | |
| 20260504193018 | 19 | 0.0 | 0.0 | 0.00 | 0.00 | 0.00 | 43 | 1012.6 | |
| 20260504192536 | 19 | 0.0 | 0.0 | 0.00 | 0.00 | 0.00 | 42 | 1012.6 | |
| 20260504192034 | 20 | 0.0 | 0.0 | 0.00 | 0.00 | 0.00 | 42 | 1012.7 | |
| 20260504191531 | 20 | 0.0 | 0.0 | 0.00 | 0.00 | 0.00 | 41 | 1012.6 | |
| 20260504191030 | 20 | 0.0 | 0.0 | 0.00 | 0.00 | 0.00 | 41 | 1012.5 | |
| 20260504190528 | 20 | 0.0 | 0.0 | 0.00 | 0.00 | 0.00 | 41 | 1012.5 | |
| 20260504190026 | 20 | 0.0 | 0.0 | 0.00 | 0.00 | 0.00 | 40 | 1012.5 | |
| 20260504185524 | 21 | 0.0 | 0.0 | 0.00 | 0.00 | 0.00 | 39 | 1012.5 | |
| 20260504185048 | 21 | 0.0 | 0.0 | 0.00 | 0.00 | 0.00 | 39 | 1012.3 | |
| 20260504185022 | 21 | 0.0 | 0.0 | 0.00 | 0.00 | 0.00 | 39 | 1012.3 | |
| 20260504184520 | 21 | 0.0 | 0.0 | 0.00 | 0.00 | 0.00 | 39 | 1012.4 | |
| 20260504184051 | 21 | 0.0 | 0.0 | 0.00 | 0.00 | 0.00 | 39 | 1012.4 | |
| 20260504184019 | 21 | 0.0 | 0.0 | 0.00 | 0.00 | 0.00 | 39 | 1012.4 | |
| 20260504183517 | 21 | 0.0 | 0.0 | 0.00 | 0.00 | 0.00 | 38 | 1012.4 | |
| 20260504183034 | 21 | 0.0 | 0.0 | 0.00 | 0.00 | 0.00 | 38 | 1012.4 | |
| 20260504182533 | 22 | 0.0 | 0.0 | 0.00 | 0.00 | 0.00 | 37 | 1012.2 | |
| 20260504182031 | 22 | 0.0 | 0.0 | 0.00 | 0.00 | 0.00 | 37 | 1012.1 | |
| 20260504181528 | 22 | 0.0 | 0.0 | 0.00 | 0.00 | 0.00 | 36 | 1012.1 | |
| 20260504181027 | 22 | 0.0 | 0.0 | 0.00 | 0.00 | 0.00 | 36 | 1012.1 | |
| 20260504180523 | 23 | 0.0 | 0.0 | 0.00 | 0.00 | 0.00 | 35 | 1012.1 | |
| 20260504180021 | 23 | 193 | 0.0 | 1.6 | 0.00 | 0.00 | 0.00 | 35 | 1012.1 |
| 20260504175519 | 23 | 0.0 | 0.0 | 0.00 | 0.00 | 0.00 | 34 | 1012.1 | |
| 20260504175049 | 23 | 0.0 | 0.0 | 0.00 | 0.00 | 0.00 | 34 | 1012.1 | |
| 20260504175017 | 23 | 0.0 | 0.0 | 0.00 | 0.00 | 0.00 | 34 | 1012.1 | |
| 20260504174535 | 23 | 0.0 | 0.0 | 0.00 | 0.00 | 0.00 | 33 | 1012.1 | |
| 20260504174033 | 24 | 0.0 | 0.0 | 0.00 | 0.00 | 0.00 | 33 | 1012.0 | |
| 20260504173530 | 24 | 202 | 0.0 | 3.2 | 0.00 | 0.00 | 0.00 | 32 | 1011.9 |
| 20260504173028 | 25 | 190 | 0.0 | 1.6 | 0.00 | 0.00 | 0.00 | 31 | 1012.0 |
| 20260504172525 | 25 | 222 | 0.0 | 3.2 | 0.00 | 0.00 | 0.00 | 31 | 1012.0 |
| 20260504172023 | 25 | 242 | 0.0 | 3.2 | 0.00 | 0.00 | 0.00 | 30 | 1012.0 |
| 20260504171521 | 25 | 242 | 1.6 | 3.2 | 0.00 | 0.00 | 0.00 | 29 | 1011.9 |
| 20260504171020 | 25 | 221 | 3.2 | 11.3 | 0.00 | 0.00 | 0.00 | 29 | 1011.9 |
| 20260504170518 | 25 | 245 | 3.2 | 6.4 | 0.00 | 0.00 | 0.00 | 29 | 1011.9 |